DW4604 Weather Reports


Display with metric or nautical units.
time (UTC)temp
F
wind
direction
speed
MPH
gust
MPH
rain 1hr
in
rain 24hr
in
rain mn
in
humidity
%
barometer
mb
20171213091948 36 0 0.0 0.0 0.00 0.00 0.00 82 1016.6
20171213091448 36 0 0.0 0.0 0.00 0.00 0.00 82 1016.5
20171213090948 36 147 0.0 1.0 0.00 0.00 0.00 82 1016.5
20171213090448 36 147 0.0 1.0 0.00 0.00 0.00 83 1016.5
20171213085948 36 0 0.0 0.0 0.00 0.00 0.00 83 1016.5
20171213085448 36 81 0.0 1.0 0.00 0.00 0.00 83 1016.6
20171213084948 36 81 0.0 1.0 0.00 0.00 0.00 83 1016.6
20171213084448 35 218 0.0 1.0 0.00 0.00 0.00 82 1016.6
20171213083948 35 218 0.0 1.0 0.00 0.00 0.00 82 1016.6
20171213083449 36 0 0.0 0.0 0.00 0.00 0.00 82 1016.5
20171213082949 36 0 0.0 0.0 0.00 0.00 0.00 82 1016.5
20171213082449 36 0 0.0 0.0 0.00 0.00 0.00 83 1016.4
20171213081949 35 0 0.0 0.0 0.00 0.00 0.00 83 1016.4
20171213081449 35 229 0.0 2.0 0.00 0.00 0.00 83 1016.3
20171213080949 35 234 0.0 2.0 0.00 0.00 0.00 83 1016.2
20171213080449 35 251 0.0 1.0 0.00 0.00 0.00 84 1016.2
20171213075949 35 0 0.0 0.0 0.00 0.00 0.00 85 1016.2
20171213075449 35 0 0.0 0.0 0.00 0.00 0.00 86 1016.2
20171213074949 34 0 0.0 0.0 0.00 0.00 0.00 86 1016.2
20171213074449 34 0 0.0 0.0 0.00 0.00 0.00 86 1016.2
20171213073949 33 0 0.0 0.0 0.00 0.00 0.00 87 1016.2
20171213073448 33 0 0.0 0.0 0.00 0.00 0.00 86 1016.2
20171213072949 33 0 0.0 0.0 0.00 0.00 0.00 86 1016.3
20171213072448 33 0 0.0 0.0 0.00 0.00 0.00 86 1016.2
20171213071948 33 0 0.0 0.0 0.00 0.00 0.00 86 1016.2
20171213071449 33 0 0.0 0.0 0.00 0.00 0.00 86 1016.2
20171213070949 33 0 0.0 0.0 0.00 0.00 0.00 87 1016.3
20171213070449 33 0 0.0 0.0 0.00 0.00 0.00 87 1016.2
20171213065949 33 0 0.0 0.0 0.00 0.00 0.00 87 1016.2
20171213065449 32 0 0.0 0.0 0.00 0.00 0.00 87 1016.2
20171213064949 33 0 0.0 0.0 0.00 0.00 0.00 87 1016.2
20171213064449 32 0 0.0 0.0 0.00 0.00 0.00 87 1016.1
20171213063949 32 0 0.0 0.0 0.00 0.00 0.00 88 1016.1
20171213063449 32 0 0.0 0.0 0.00 0.00 0.00 88 1016.2
20171213062949 32 0 0.0 0.0 0.00 0.00 0.00 88 1016.1
20171213062449 32 0 0.0 0.0 0.00 0.00 0.00 88 1016.1
20171213061949 31 0 0.0 0.0 0.00 0.00 0.00 87 1016.1
20171213061449 32 0 0.0 0.0 0.00 0.00 0.00 86 1016.0
20171213060949 32 0 0.0 0.0 0.00 0.00 0.00 86 1015.9
20171213060449 32 0 0.0 0.0 0.00 0.00 0.00 86 1015.8
20171213055949 32 0 0.0 0.0 0.00 0.00 0.00 87 1015.7
20171213055449 32 0 0.0 0.0 0.00 0.00 0.00 87 1015.7
20171213054949 32 0 0.0 0.0 0.00 0.00 0.00 87 1015.6
20171213054449 32 0 0.0 0.0 0.00 0.00 0.00 87 1015.7
20171213053949 32 0 0.0 0.0 0.00 0.00 0.00 86 1015.6
20171213053449 32 0 0.0 0.0 0.00 0.00 0.00 86 1015.6
20171213052949 32 0 0.0 0.0 0.00 0.00 0.00 85 1015.5
20171213052450 32 0 0.0 0.0 0.00 0.00 0.00 85 1015.4
20171213051950 32 0 0.0 0.0 0.00 0.00 0.00 85 1015.3
20171213051450 33 0 0.0 0.0 0.00 0.00 0.00 84 1015.2
20171213050950 33 0 0.0 0.0 0.00 0.00 0.00 84 1015.1
20171213050450 33 0 0.0 0.0 0.00 0.00 0.00 83 1015.1
20171213045949 33 0 0.0 0.0 0.00 0.00 0.00 83 1015.2
20171213045449 34 327 0.0 1.0 0.00 0.00 0.00 83 1015.2
20171213044949 34 327 0.0 1.0 0.00 0.00 0.00 83 1015.2
20171213044449 34 327 0.0 1.0 0.00 0.00 0.00 83 1015.2
20171213043949 34 285 0.0 1.0 0.00 0.00 0.00 82 1015.2
20171213043449 34 250 0.0 2.0 0.00 0.00 0.00 82 1015.1
20171213042949 34 239 0.0 2.0 0.00 0.00 0.00 82 1015.1
20171213042449 34 249 0.0 2.0 0.00 0.00 0.00 82 1015.1
20171213041949 34 248 0.0 2.0 0.00 0.00 0.00 82 1015.1
20171213041449 35 244 0.0 2.0 0.00 0.00 0.00 81 1015.0
20171213040949 35 251 0.0 1.0 0.00 0.00 0.00 81 1014.9
20171213040449 35 327 0.0 1.0 0.00 0.00 0.00 81 1014.8
20171213035950 35 328 0.0 1.0 0.00 0.00 0.00 81 1015.0
20171213035450 35 305 0.0 1.0 0.00 0.00 0.00 80 1014.9
20171213034950 35 280 0.0 1.0 0.00 0.00 0.00 80 1015.0
20171213034450 35 241 0.0 1.0 0.00 0.00 0.00 80 1014.9
20171213033950 35 242 0.0 2.0 0.00 0.00 0.00 79 1014.8
20171213033450 36 242 0.0 2.0 0.00 0.00 0.00 79 1014.8
20171213032950 36 237 0.0 3.0 0.00 0.00 0.00 79 1014.9
20171213032450 36 237 0.0 3.0 0.00 0.00 0.00 79 1014.9
20171213031950 36 241 1.0 3.0 0.00 0.00 0.00 79 1015.0
20171213031449 36 240 1.0 4.0 0.00 0.00 0.00 78 1015.0
20171213030950 36 241 1.0 4.0 0.00 0.00 0.00 78 1015.0
20171213030449 36 241 1.0 4.0 0.00 0.00 0.00 78 1014.8
20171213025949 36 238 1.0 5.0 0.00 0.00 0.00 78 1014.8
20171213025449 36 236 1.0 5.0 0.00 0.00 0.00 78 1014.9
20171213024949 36 239 1.0 3.0 0.00 0.00 0.00 79 1014.8
20171213024450 36 239 1.0 4.0 0.00 0.00 0.00 79 1014.8
20171213023950 36 241 1.0 4.0 0.00 0.00 0.00 78 1014.7
20171213023450 36 242 1.0 5.0 0.00 0.00 0.00 78 1014.7
20171213022950 36 242 1.0 7.0 0.00 0.00 0.00 78 1014.8
20171213022450 36 241 2.0 7.0 0.00 0.00 0.00 78 1014.8
20171213021950 37 240 1.0 7.0 0.00 0.00 0.00 78 1014.8
20171213021450 36 240 1.0 4.0 0.00 0.00 0.00 78 1014.7
20171213020950 37 239 1.0 4.0 0.00 0.00 0.00 77 1014.5
20171213020450 37 241 0.0 4.0 0.00 0.00 0.00 77 1014.6
20171213015950 37 239 0.0 3.0 0.00 0.00 0.00 77 1014.7
20171213015450 37 238 0.0 2.0 0.00 0.00 0.00 77 1014.6
20171213014950 37 241 0.0 2.0 0.00 0.00 0.00 76 1014.6
20171213014450 37 242 0.0 2.0 0.00 0.00 0.00 76 1014.5
20171213013950 37 238 0.0 3.0 0.00 0.00 0.00 76 1014.5
20171213013450 37 242 1.0 5.0 0.00 0.00 0.00 76 1014.6
20171213012950 37 242 1.0 5.0 0.00 0.00 0.00 76 1014.6
20171213012450 37 238 1.0 4.0 0.00 0.00 0.00 76 1014.5
20171213011950 37 239 1.0 4.0 0.00 0.00 0.00 76 1014.4
20171213011450 37 240 1.0 6.0 0.00 0.00 0.00 76 1014.5
20171213010950 37 238 2.0 6.0 0.00 0.00 0.00 76 1014.4
20171213010450 37 237 2.0 5.0 0.00 0.00 0.00 77 1014.4
20171213005950 37 238 1.0 5.0 0.00 0.00 0.00 77 1014.5
20171213005450 37 241 1.0 5.0 0.00 0.00 0.00 77 1014.4
20171213004950 37 243 1.0 3.0 0.00 0.00 0.00 77 1014.4
20171213004450 37 242 0.0 3.0 0.00 0.00 0.00 77 1014.3
20171213003950 37 239 0.0 2.0 0.00 0.00 0.00 77 1014.3
20171213003450 37 239 0.0 2.0 0.00 0.00 0.00 77 1014.2
20171213002950 38 243 0.0 2.0 0.00 0.00 0.00 77 1014.2
20171213002450 38 241 0.0 3.0 0.00 0.00 0.00 76 1014.1
20171213001950 38 239 0.0 4.0 0.00 0.00 0.00 76 1014.0
20171213001450 38 239 0.0 4.0 0.00 0.00 0.00 76 1014.1
20171213000950 38 246 1.0 4.0 0.00 0.00 0.00 76 1014.0
20171213000451 38 246 1.0 4.0 0.00 0.00 0.00 76 1014.0
20171212235951 38 241 1.0 6.0 0.00 0.00 0.00 76 1014.0
20171212235450 38 241 1.0 6.0 0.00 0.00 0.00 76 1014.0
20171212234950 38 237 1.0 5.0 0.00 0.00 0.00 77 1013.9
20171212234450 38 239 1.0 4.0 0.00 0.00 0.00 77 1013.9
20171212233950 38 242 1.0 5.0 0.00 0.00 0.00 76 1013.9
20171212233451 38 239 1.0 5.0 0.00 0.00 0.00 76 1013.9
20171212232950 38 241 1.0 5.0 0.00 0.00 0.00 76 1013.9
20171212232450 38 247 1.0 4.0 0.00 0.00 0.00 76 1013.9
20171212231950 38 249 1.0 5.0 0.00 0.00 0.00 76 1013.9
20171212231450 38 246 1.0 5.0 0.00 0.00 0.00 76 1013.9
20171212230950 39 241 1.0 5.0 0.00 0.00 0.00 75 1013.7
20171212230451 39 239 1.0 5.0 0.00 0.00 0.00 75 1013.8
20171212225951 39 238 2.0 6.0 0.00 0.00 0.00 75 1013.9
20171212225450 39 237 2.0 6.0 0.00 0.00 0.00 75 1013.8
20171212224951 39 241 2.0 5.0 0.00 0.00 0.00 75 1013.7
20171212224451 39 242 2.0 6.0 0.00 0.00 0.00 74 1013.6
20171212223951 39 240 2.0 6.0 0.00 0.00 0.00 74 1013.4
20171212223451 39 239 2.0 6.0 0.00 0.00 0.00 74 1013.5
20171212222951 39 239 3.0 7.0 0.00 0.00 0.00 74 1013.5
20171212222451 39 243 3.0 9.0 0.00 0.00 0.00 74 1013.6
20171212221951 39 242 3.0 9.0 0.00 0.00 0.00 74 1013.6
20171212221450 39 237 3.0 9.0 0.00 0.00 0.00 74 1013.5
20171212220950 39 236 2.0 7.0 0.00 0.00 0.00 73 1013.5
20171212220450 39 239 1.0 6.0 0.00 0.00 0.00 73 1013.4
20171212215950 39 242 2.0 7.0 0.00 0.00 0.00 73 1013.3
20171212215451 39 240 2.0 8.0 0.00 0.00 0.00 73 1013.2
20171212214951 40 239 3.0 9.0 0.00 0.00 0.00 72 1013.2
20171212214451 40 238 3.0 9.0 0.00 0.00 0.00 72 1013.1
20171212213951 40 237 3.0 7.0 0.00 0.00 0.00 72 1013.1
20171212213451 40 236 3.0 9.0 0.00 0.00 0.00 71 1013.1
20171212212951 40 234 2.0 9.0 0.00 0.00 0.00 71 1012.9
20171212212451 40 236 3.0 7.0 0.00 0.00 0.00 71 1012.8
20171212211951 40 237 3.0 8.0 0.00 0.00 0.00 71 1012.7
20171212211451 40 237 3.0 8.0 0.00 0.00 0.00 70 1012.8
20171212210951 39 238 2.0 6.0 0.00 0.00 0.00 70 1012.8
20171212210451 39 237 1.0 5.0 0.00 0.00 0.00 71 1012.7
20171212205951 39 233 1.0 3.0 0.00 0.00 0.00 71 1012.7
20171212205451 39 236 1.0 3.0 0.00 0.00 0.00 71 1012.7
20171212204951 39 240 1.0 3.0 0.00 0.00 0.00 71 1012.7
20171212204451 40 239 1.0 2.0 0.00 0.00 0.00 71 1012.6
20171212203951 40 241 1.0 5.0 0.00 0.00 0.00 70 1012.6
20171212203451 40 240 1.0 5.0 0.00 0.00 0.00 69 1012.6
20171212202951 40 245 1.0 4.0 0.00 0.00 0.00 69 1012.5
20171212202452 40 244 1.0 5.0 0.00 0.00 0.00 68 1012.4
20171212201951 40 244 2.0 6.0 0.00 0.00 0.00 68 1012.3
20171212201451 40 249 2.0 6.0 0.00 0.00 0.00 68 1012.4
20171212200951 40 258 1.0 4.0 0.00 0.00 0.00 68 1012.3
20171212200451 40 255 1.0 4.0 0.00 0.00 0.00 67 1012.2
20171212195951 40 248 1.0 4.0 0.00 0.00 0.00 67 1012.2
20171212195451 40 251 1.0 5.0 0.00 0.00 0.00 67 1012.0
20171212194951 41 253 1.0 5.0 0.00 0.00 0.00 66 1011.9
20171212194451 41 252 1.0 5.0 0.00 0.00 0.00 66 1011.9
20171212193951 41 251 1.0 5.0 0.00 0.00 0.00 66 1011.8
20171212193451 41 271 0.0 3.0 0.00 0.00 0.00 66 1011.7
20171212192951 41 297 1.0 6.0 0.00 0.00 0.00 65 1011.7
20171212192451 41 303 1.0 6.0 0.00 0.00 0.00 65 1011.6
20171212191952 41 302 2.0 8.0 0.00 0.00 0.00 65 1011.5
20171212191452 41 304 2.0 10.0 0.00 0.00 0.00 64 1011.4
20171212190952 41 302 2.0 10.0 0.00 0.00 0.00 64 1011.4
20171212190451 41 300 3.0 8.0 0.00 0.00 0.00 64 1011.3
20171212185951 41 308 3.0 7.0 0.00 0.00 0.00 64 1011.4
20171212185451 41 306 2.0 7.0 0.00 0.00 0.00 64 1011.4
20171212184951 41 300 2.0 6.0 0.00 0.00 0.00 65 1011.2
20171212184451 41 297 2.0 10.0 0.00 0.00 0.00 65 1011.3
20171212183951 41 298 2.0 10.0 0.00 0.00 0.00 65 1011.3
20171212183452 41 305 1.0 6.0 0.00 0.00 0.00 66 1011.1
20171212182952 41 294 2.0 7.0 0.00 0.00 0.00 66 1011.1
20171212182452 41 296 2.0 7.0 0.00 0.00 0.00 66 1011.0
20171212181952 41 308 1.0 7.0 0.00 0.00 0.00 67 1010.9
20171212181452 42 303 1.0 4.0 0.00 0.00 0.00 68 1010.8
20171212180952 42 294 2.0 7.0 0.00 0.00 0.00 68 1010.8
20171212180452 42 284 2.0 8.0 0.00 0.00 0.00 68 1010.5
20171212175952 42 279 2.0 8.0 0.00 0.00 0.00 68 1010.5
20171212175452 42 285 2.0 6.0 0.00 0.00 0.00 68 1010.4
20171212174952 42 292 2.0 11.0 0.00 0.00 0.00 68 1010.2
20171212174452 42 289 2.0 11.0 0.00 0.00 0.00 68 1009.9
20171212173952 42 286 2.0 7.0 0.00 0.00 0.00 69 1009.8
20171212173452 42 281 3.0 10.0 0.00 0.00 0.00 68 1009.8
20171212172952 42 276 3.0 10.0 0.00 0.00 0.00 68 1009.6
20171212172452 42 291 4.0 15.0 0.00 0.00 0.00 69 1009.5
20171212171952 43 297 3.0 15.0 0.00 0.00 0.00 69 1009.3
20171212171451 43 300 3.0 9.0 0.00 0.00 0.00 69 1009.2
20171212170952 43 302 3.0 9.0 0.00 0.00 0.00 69 1009.0
20171212170451 43 303 4.0 12.0 0.00 0.00 0.00 69 1008.8
20171212165951 43 299 4.0 15.0 0.00 0.00 0.00 69 1008.9
20171212165451 43 295 4.0 15.0 0.00 0.00 0.00 68 1008.7
20171212164951 43 301 3.0 11.0 0.00 0.00 0.00 70 1008.6
20171212164451 43 298 4.0 11.0 0.00 0.00 0.00 69 1008.4
20171212163952 43 298 4.0 9.0 0.00 0.00 0.00 70 1008.4
20171212163452 43 302 3.0 9.0 0.00 0.00 0.00 70 1008.3
20171212162952 44 301 4.0 9.0 0.00 0.00 0.00 70 1008.3
20171212162452 44 303 4.0 9.0 0.00 0.00 0.00 70 1008.1
20171212161952 44 302 3.0 9.0 0.00 0.00 0.00 70 1008.1
20171212161452 45 279 4.0 14.0 0.00 0.00 0.00 69 1007.8
20171212160952 46 251 5.0 14.0 0.00 0.00 0.00 70 1007.9
20171212160452 46 241 6.0 15.0 0.00 0.00 0.00 73 1007.5
20171212155952 46 242 5.0 15.0 0.00 0.00 0.00 73 1007.6
20171212155452 46 243 5.0 12.0 0.00 0.00 0.00 73 1007.5
20171212154952 46 242 4.0 11.0 0.00 0.00 0.00 72 1007.6
20171212154452 46 244 3.0 11.0 0.00 0.00 0.00 73 1007.6
20171212153952 46 249 3.0 11.0 0.00 0.00 0.00 72 1007.6
20171212153452 46 252 3.0 9.0 0.00 0.00 0.00 72 1007.4
20171212152952 46 247 2.0 7.0 0.00 0.00 0.00 72 1007.3
20171212152452 47 248 2.0 8.0 0.00 0.00 0.00 72 1007.3
20171212151952 47 247 2.0 8.0 0.00 0.00 0.00 72 1007.2
20171212151452 47 244 3.0 11.0 0.00 0.00 0.00 72 1007.2
20171212150952 47 247 3.0 11.0 0.00 0.00 0.00 72 1006.9
20171212150452 47 245 3.0 10.0 0.00 0.00 0.00 72 1006.7
20171212145953 47 242 4.0 13.0 0.00 0.00 0.00 72 1006.7
20171212145452 47 239 4.0 13.0 0.00 0.00 0.00 72 1006.5
20171212144953 47 240 2.0 10.0 0.00 0.00 0.00 73 1006.5
20171212144452 47 244 1.0 9.0 0.00 0.00 0.00 74 1006.3
20171212143952 47 239 2.0 9.0 0.00 0.00 0.00 74 1006.2
20171212143452 47 233 3.0 9.0 0.00 0.00 0.00 74 1005.9
20171212142952 47 236 3.0 9.0 0.00 0.00 0.00 74 1005.7
20171212142452 47 253 2.0 9.0 0.00 0.00 0.00 74 1005.6
20171212141952 47 283 1.0 7.0 0.00 0.00 0.00 74 1005.7
20171212141452 47 276 1.0 7.0 0.00 0.00 0.00 74 1005.7
20171212140952 47 245 2.0 8.0 0.00 0.00 0.00 74 1005.5
20171212140452 47 250 3.0 11.0 0.00 0.00 0.00 74 1005.3
20171212135953 47 245 5.0 15.0 0.00 0.00 0.00 74 1005.2
20171212135453 47 239 7.0 15.0 0.00 0.00 0.00 73 1005.0
20171212134953 47 238 9.0 20.0 0.00 0.00 0.00 73 1004.8
20171212134453 48 238 7.0 20.0 0.00 0.00 0.00 73 1004.7
20171212133953 48 239 5.0 19.0 0.00 0.00 0.00 73 1004.8
20171212133453 48 240 6.0 17.0 0.00 0.00 0.00 73 1004.6
20171212132953 48 241 7.0 17.0 0.00 0.00 0.00 72 1004.6
20171212132452 48 240 6.0 17.0 0.00 0.00 0.00 72 1004.5
20171212131952 48 237 6.0 17.0 0.00 0.00 0.00 72 1004.1
20171212131452 49 240 10.0 23.0 0.00 0.00 0.00 71 1004.0
20171212130952 49 240 10.0 23.0 0.00 0.00 0.00 70 1004.1
20171212130452 49 239 8.0 20.0 0.00 0.00 0.00 69 1003.8
20171212125953 49 242 6.0 17.0 0.00 0.00 0.00 69 1003.6
20171212125453 50 247 5.0 17.0 0.00 0.00 0.00 69 1003.6
20171212124953 50 265 5.0 17.0 0.00 0.00 0.00 68 1003.7
20171212124453 50 284 4.0 14.0 0.00 0.00 0.00 67 1003.5
20171212123953 50 268 4.0 11.0 0.00 0.00 0.00 66 1003.2
20171212123453 50 237 6.0 16.0 0.00 0.00 0.00 64 1002.7
20171212122953 50 232 8.0 16.0 0.00 0.00 0.00 64 1002.5
20171212122453 50 233 9.0 16.0 0.00 0.00 0.00 66 1002.4
20171212121952 50 236 11.0 20.0 0.00 0.00 0.00 66 1002.3
20171212121452 50 235 12.0 23.0 0.00 0.00 0.00 66 1002.3
20171212120953 50 232 13.0 30.0 0.00 0.00 0.00 66 1002.2
20171212120453 50 231 13.0 30.0 0.00 0.00 0.00 65 1002.1
20171212115953 50 229 13.0 26.0 0.00 0.00 0.00 66 1002.1
20171212115453 50 230 12.0 25.0 0.00 0.00 0.00 67 1002.0
20171212114952 50 234 12.0 21.0 0.00 0.00 0.00 68 1002.0
20171212114453 50 233 11.0 19.0 0.00 0.00 0.00 68 1001.9
20171212113954 50 233 12.0 24.0 0.00 0.00 0.00 69 1001.6
20171212113453 50 234 12.0 24.0 0.00 0.00 0.00 69 1001.6
20171212112953 50 232 12.0 23.0 0.00 0.00 0.00 71 1001.8
20171212112453 49 231 10.0 20.0 0.00 0.00 0.00 73 1001.8
20171212111953 49 231 9.0 20.0 0.00 0.00 0.00 74 1001.7
20171212111453 49 233 9.0 19.0 0.00 0.00 0.00 75 1001.8
20171212110953 49 233 7.0 18.0 0.00 0.00 0.00 76 1001.7
20171212110453 49 234 6.0 12.0 0.00 0.00 0.00 78 1001.8
20171212105953 49 234 7.0 14.0 0.00 0.00 0.00 78 1001.7
20171212105453 49 233 7.0 14.0 0.00 0.00 0.00 78 1001.7
20171212104953 49 235 7.0 14.0 0.00 0.00 0.00 78 1001.5
20171212104453 49 237 8.0 16.0 0.00 0.00 0.00 78 1001.5
20171212103954 49 234 8.0 16.0 0.00 0.00 0.00 77 1001.2
20171212103453 49 234 7.0 14.0 0.00 0.00 0.00 77 1000.9
20171212102953 49 231 7.0 15.0 0.00 0.00 0.00 78 1000.9
20171212102453 49 232 8.0 15.0 0.00 0.00 0.00 78 1000.8
20171212101953 49 236 8.0 18.0 0.00 0.00 0.00 77 1000.7
20171212101453 49 235 7.0 18.0 0.00 0.00 0.00 76 1000.7
20171212100954 49 236 6.0 12.0 0.00 0.00 0.00 76 1000.5
20171212100454 49 235 7.0 17.0 0.00 0.00 0.00 75 1000.3
20171212095955 49 234 8.0 17.0 0.00 0.00 0.00 75 1000.1
20171212095453 49 234 7.0 16.0 0.00 0.00 0.00 75 1000.0
20171212094953 50 235 9.0 20.0 0.00 0.00 0.00 75 1000.0
20171212094453 50 235 9.0 20.0 0.00 0.00 0.00 74 1000.3
20171212093953 50 236 10.0 19.0 0.00 0.00 0.00 75 1000.3
20171212093453 50 236 11.0 19.0 0.00 0.00 0.00 73 1000.3
20171212092953 50 235 10.0 19.0 0.00 0.00 0.00 75 1000.3
20171212092454 50 232 9.0 21.0 0.00 0.00 0.00 76 1000.3